Time,TemperatureF,DewpointF,PressureIn,WindDirection,WindDirectionDegrees,WindSpeedMPH,WindSpeedGustMPH,Humidity,HourlyPrecipIn,Conditions,Clouds,dailyrainin,SoftwareType,DateUTC
2013-08-15 00:01:00,62.4,19.6,29.59,SSE,152,3.6,4.0,19,0.00,,SKC,0.00,VWS V14.01,2013-08-15 07:01:00,
2013-08-15 00:06:00,63.5,19.3,29.59,SSE,147,2.2,3.1,18,0.00,,SKC,0.00,VWS V14.01,2013-08-15 07:06:00,
2013-08-15 00:11:00,63.9,19.6,29.56,SE,125,2.7,3.6,18,0.00,,SKC,0.00,VWS V14.01,2013-08-15 07:11:00,
2013-08-15 00:16:00,63.9,19.6,29.56,SE,128,5.8,5.8,18,0.00,,SKC,0.00,VWS V14.01,2013-08-15 07:16:00,
2013-08-15 00:21:00,64.0,19.7,29.56,SE,135,3.6,3.6,18,0.00,,SKC,0.00,VWS V14.01,2013-08-15 07:21:00,
2013-08-15 00:26:00,64.6,20.1,29.59,South,188,0.0,0.0,18,0.00,,SKC,0.00,VWS V14.01,2013-08-15 07:26:00,
2013-08-15 00:31:00,65.1,20.6,29.59,SE,142,2.7,4.9,18,0.00,,SKC,0.00,VWS V14.01,2013-08-15 07:31:00,
2013-08-15 00:36:00,65.5,20.9,29.59,SE,130,2.7,4.9,18,0.00,,SKC,0.00,VWS V14.01,2013-08-15 07:36:00,
2013-08-15 00:41:00,65.1,20.6,29.56,SE,130,0.0,0.0,18,0.00,,SKC,0.00,VWS V14.01,2013-08-15 07:41:00,
2013-08-15 00:46:00,64.2,19.9,29.56,SE,130,0.0,0.0,18,0.00,,SKC,0.00,VWS V14.01,2013-08-15 07:46:00,
2013-08-15 00:51:00,62.8,18.7,29.56,SE,130,0.0,0.0,18,0.00,,SKC,0.00,VWS V14.01,2013-08-15 07:51:00,
2013-08-15 00:56:00,62.2,19.5,29.59,SE,130,0.0,0.0,19,0.00,,SKC,0.00,VWS V14.01,2013-08-15 07:56:00,
2013-08-15 01:01:00,61.9,19.2,29.59,SSE,153,0.0,0.0,19,0.00,,SKC,0.00,VWS V14.01,2013-08-15 08:01:00,
2013-08-15 01:06:00,61.7,19.0,29.59,SSE,153,0.0,0.0,19,0.00,,SKC,0.00,VWS V14.01,2013-08-15 08:06:00,
2013-08-15 01:11:00,61.0,18.5,29.56,SSE,153,0.0,0.0,19,0.00,,SKC,0.00,VWS V14.01,2013-08-15 08:11:00,
2013-08-15 01:16:00,60.3,17.9,29.56,SSE,153,0.0,0.0,19,0.00,,SKC,0.00,VWS V14.01,2013-08-15 08:16:00,
2013-08-15 01:21:00,59.7,17.4,29.56,SSE,154,0.0,0.0,19,0.00,,SKC,0.00,VWS V14.01,2013-08-15 08:21:00,
2013-08-15 01:26:00,59.2,17.0,29.59,SSE,164,0.0,0.0,19,0.00,,SKC,0.00,VWS V14.01,2013-08-15 08:26:00,
2013-08-15 01:30:00,58.8,16.7,29.59,SSE,164,0.0,0.0,19,0.00,,SKC,0.00,VWS V14.01,2013-08-15 08:30:00,
2013-08-15 01:36:00,57.9,15.9,29.59,SSE,164,0.0,0.0,19,0.00,,SKC,0.00,VWS V14.01,2013-08-15 08:36:00,
2013-08-15 01:40:00,57.7,19.2,29.59,SSE,164,0.0,0.0,22,0.00,,SKC,0.00,VWS V14.01,2013-08-15 08:40:00,
2013-08-15 01:45:00,57.2,18.7,29.59,SSE,164,0.0,0.0,22,0.00,,SKC,0.00,VWS V14.01,2013-08-15 08:45:00,
2013-08-15 01:50:00,56.7,18.3,29.59,SSE,164,0.0,0.0,22,0.00,,SKC,0.00,VWS V14.01,2013-08-15 08:50:00,
2013-08-15 01:55:00,56.1,17.8,29.56,SSE,164,0.0,0.0,22,0.00,,SKC,0.00,VWS V14.01,2013-08-15 08:55:00,
2013-08-15 02:00:00,55.9,17.7,29.56,SSE,164,0.0,0.0,22,0.00,,SKC,0.00,VWS V14.01,2013-08-15 09:00:00,
2013-08-15 02:05:00,55.8,17.5,29.56,SSE,164,0.0,0.0,22,0.00,,SKC,0.00,VWS V14.01,2013-08-15 09:05:00,
2013-08-15 02:10:00,55.4,17.2,29.56,SSE,164,0.0,0.0,22,0.00,,SKC,0.00,VWS V14.01,2013-08-15 09:10:00,
2013-08-15 02:15:00,55.0,19.9,29.56,SSE,164,0.0,0.0,25,0.00,,SKC,0.00,VWS V14.01,2013-08-15 09:15:00,
2013-08-15 02:20:00,55.6,17.4,29.56,SE,135,0.0,0.0,22,0.00,,SKC,0.00,VWS V14.01,2013-08-15 09:20:00,
2013-08-15 02:25:00,55.9,17.7,29.56,ESE,123,0.0,0.0,22,0.00,,SKC,0.00,VWS V14.01,2013-08-15 09:25:00,
2013-08-15 02:30:00,55.9,17.7,29.56,ESE,123,0.0,0.0,22,0.00,,SKC,0.00,VWS V14.01,2013-08-15 09:30:00,
2013-08-15 02:35:00,55.6,17.4,29.56,ESE,123,0.0,0.0,22,0.00,,SKC,0.00,VWS V14.01,2013-08-15 09:35:00,
2013-08-15 02:40:00,55.0,14.7,29.56,ESE,123,0.0,0.0,20,0.00,,SKC,0.00,VWS V14.01,2013-08-15 09:40:00,
2013-08-15 02:45:00,54.3,17.3,29.56,ESE,123,0.0,0.0,23,0.00,,SKC,0.00,VWS V14.01,2013-08-15 09:45:00,
2013-08-15 02:50:00,53.8,16.9,29.56,ESE,123,0.0,0.0,23,0.00,,SKC,0.00,VWS V14.01,2013-08-15 09:50:00,
2013-08-15 02:55:00,53.4,16.6,29.56,ESE,123,0.0,0.0,23,0.00,,SKC,0.00,VWS V14.01,2013-08-15 09:55:00,
2013-08-15 03:00:00,53.4,19.4,29.56,ESE,123,0.0,0.0,26,0.00,,SKC,0.00,VWS V14.01,2013-08-15 10:00:00,
2013-08-15 03:05:00,53.4,19.4,29.56,East,80,0.0,0.0,26,0.00,,SKC,0.00,VWS V14.01,2013-08-15 10:05:00,
2013-08-15 03:10:00,53.4,19.4,29.56,East,80,0.0,0.0,26,0.00,,SKC,0.00,VWS V14.01,2013-08-15 10:10:00,
2013-08-15 03:15:00,53.2,19.3,29.56,East,80,0.0,0.0,26,0.00,,SKC,0.00,VWS V14.01,2013-08-15 10:15:00,
2013-08-15 03:20:00,52.9,19.0,29.56,East,80,0.0,0.0,26,0.00,,SKC,0.00,VWS V14.01,2013-08-15 10:20:00,
2013-08-15 03:25:00,52.5,18.6,29.56,East,80,0.0,0.0,26,0.00,,SKC,0.00,VWS V14.01,2013-08-15 10:25:00,
2013-08-15 03:30:00,52.3,18.5,29.56,East,80,0.0,0.0,26,0.00,,SKC,0.00,VWS V14.01,2013-08-15 10:30:00,
2013-08-15 03:35:00,52.0,18.2,29.56,East,80,0.0,0.0,26,0.00,,SKC,0.00,VWS V14.01,2013-08-15 10:35:00,
2013-08-15 03:40:00,52.2,18.3,29.56,East,80,0.0,0.0,26,0.00,,SKC,0.00,VWS V14.01,2013-08-15 10:40:00,
2013-08-15 03:45:00,52.7,18.8,29.56,East,80,0.0,0.0,26,0.00,,SKC,0.00,VWS V14.01,2013-08-15 10:45:00,
2013-08-15 03:50:00,52.3,18.5,29.56,East,80,0.0,0.0,26,0.00,,SKC,0.00,VWS V14.01,2013-08-15 10:50:00,
2013-08-15 03:55:00,52.0,19.1,29.56,East,80,0.0,0.0,27,0.00,,SKC,0.00,VWS V14.01,2013-08-15 10:55:00,
2013-08-15 04:00:00,51.8,18.9,29.56,East,80,0.0,0.0,27,0.00,,SKC,0.00,VWS V14.01,2013-08-15 11:00:00,
2013-08-15 04:05:00,51.8,18.9,29.56,East,80,0.0,0.0,27,0.00,,SKC,0.00,VWS V14.01,2013-08-15 11:05:00,
2013-08-15 04:10:00,51.4,18.6,29.56,East,80,0.0,0.0,27,0.00,,SKC,0.00,VWS V14.01,2013-08-15 11:10:00,
2013-08-15 04:15:00,51.3,18.4,29.56,East,80,0.0,0.0,27,0.00,,SKC,0.00,VWS V14.01,2013-08-15 11:15:00,
2013-08-15 04:20:00,51.3,18.4,29.56,East,80,0.0,0.0,27,0.00,,SKC,0.00,VWS V14.01,2013-08-15 11:20:00,
2013-08-15 04:25:00,51.4,18.6,29.56,East,80,0.0,0.0,27,0.00,,SKC,0.00,VWS V14.01,2013-08-15 11:25:00,
2013-08-15 04:30:00,51.4,18.6,29.56,East,80,0.0,0.0,27,0.00,,SKC,0.00,VWS V14.01,2013-08-15 11:30:00,
2013-08-15 04:35:00,51.4,18.6,29.56,East,80,0.0,0.0,27,0.00,,SKC,0.00,VWS V14.01,2013-08-15 11:35:00,
2013-08-15 04:40:00,51.4,18.6,29.56,East,80,0.0,0.0,27,0.00,,SKC,0.00,VWS V14.01,2013-08-15 11:40:00,
2013-08-15 04:45:00,51.6,18.8,29.56,East,80,0.0,0.0,27,0.00,,SKC,0.00,VWS V14.01,2013-08-15 11:45:00,
2013-08-15 04:50:00,51.6,18.8,29.56,East,80,0.0,0.0,27,0.00,,SKC,0.00,VWS V14.01,2013-08-15 11:50:00,
2013-08-15 04:55:00,51.4,17.7,29.56,East,80,0.0,0.0,26,0.00,,SKC,0.00,VWS V14.01,2013-08-15 11:55:00,
2013-08-15 05:00:00,51.6,17.9,29.56,East,80,0.0,0.0,26,0.00,,SKC,0.00,VWS V14.01,2013-08-15 12:00:00,
2013-08-15 05:05:00,51.6,17.9,29.56,East,80,0.0,0.0,26,0.00,,SKC,0.00,VWS V14.01,2013-08-15 12:05:00,
2013-08-15 05:10:00,51.6,17.9,29.56,East,80,0.0,0.0,26,0.00,,SKC,0.00,VWS V14.01,2013-08-15 12:10:00,
2013-08-15 05:15:00,51.3,17.6,29.56,East,80,0.0,0.0,26,0.00,,SKC,0.00,VWS V14.01,2013-08-15 12:15:00,
2013-08-15 05:20:00,50.9,17.2,29.56,East,80,0.0,0.0,26,0.00,,SKC,0.00,VWS V14.01,2013-08-15 12:20:00,
2013-08-15 05:25:00,50.4,16.8,29.56,East,80,0.0,0.0,26,0.00,,SKC,0.00,VWS V14.01,2013-08-15 12:25:00,
2013-08-15 05:30:00,50.0,17.4,29.56,East,80,0.0,0.0,27,0.00,,SKC,0.00,VWS V14.01,2013-08-15 12:30:00,
2013-08-15 05:35:00,49.5,30.6,29.56,East,80,0.0,0.0,48,0.00,,SKC,0.00,VWS V14.01,2013-08-15 12:35:00,
2013-08-15 05:40:00,48.2,30.0,29.56,East,80,0.0,0.0,49,0.00,,SKC,0.00,VWS V14.01,2013-08-15 12:40:00,
2013-08-15 05:45:00,47.7,30.9,29.56,East,80,0.0,0.0,52,0.00,,SKC,0.00,VWS V14.01,2013-08-15 12:45:00,
2013-08-15 05:50:00,46.9,30.2,29.56,East,80,0.0,0.0,52,0.00,,SKC,0.00,VWS V14.01,2013-08-15 12:50:00,
2013-08-15 05:55:00,46.8,29.1,29.56,East,80,0.0,0.0,50,0.00,,SKC,0.00,VWS V14.01,2013-08-15 12:55:00,
2013-08-15 06:00:00,46.4,31.6,29.56,East,80,0.0,0.0,56,0.00,,SKC,0.00,VWS V14.01,2013-08-15 13:00:00,
2013-08-15 06:05:00,46.2,31.8,29.56,East,80,0.0,0.0,57,0.00,,SKC,0.00,VWS V14.01,2013-08-15 13:05:00,
2013-08-15 06:10:00,46.0,32.1,29.56,East,80,0.0,0.0,58,0.00,,SKC,0.00,VWS V14.01,2013-08-15 13:10:00,
2013-08-15 06:15:00,46.0,34.6,29.56,East,80,0.0,0.0,64,0.00,,SKC,0.00,VWS V14.01,2013-08-15 13:15:00,
2013-08-15 06:20:00,45.5,33.7,29.56,East,80,0.0,0.0,63,0.00,,SKC,0.00,VWS V14.01,2013-08-15 13:20:00,
2013-08-15 06:25:00,45.0,34.3,29.56,East,80,0.0,0.0,66,0.00,,SKC,0.00,VWS V14.01,2013-08-15 13:25:00,
2013-08-15 06:30:00,44.8,35.2,29.56,East,80,0.0,0.0,69,0.00,,SKC,0.00,VWS V14.01,2013-08-15 13:30:00,
2013-08-15 06:35:00,45.1,36.3,29.56,East,80,0.0,0.0,71,0.00,,SKC,0.00,VWS V14.01,2013-08-15 13:35:00,
2013-08-15 06:40:00,45.9,37.7,29.56,SW,218,0.0,0.0,73,0.00,,SKC,0.00,VWS V14.01,2013-08-15 13:40:00,
2013-08-15 06:45:00,47.1,39.6,29.56,SSW,200,0.0,0.0,75,0.00,,SKC,0.00,VWS V14.01,2013-08-15 13:45:00,
2013-08-15 06:50:00,48.6,41.0,29.56,ESE,107,0.0,0.0,75,0.00,,SKC,0.00,VWS V14.01,2013-08-15 13:50:00,
2013-08-15 06:55:00,49.8,28.2,29.56,ESE,115,0.0,0.0,43,0.00,,SKC,0.00,VWS V14.01,2013-08-15 13:55:00,
2013-08-15 07:00:00,51.8,27.6,29.56,ESE,109,0.0,0.0,39,0.00,,SKC,0.00,VWS V14.01,2013-08-15 14:00:00,
2013-08-15 07:05:00,53.4,23.6,29.56,ESE,109,0.0,0.0,31,0.00,,SKC,0.00,VWS V14.01,2013-08-15 14:05:00,
2013-08-15 07:10:00,55.2,21.0,29.56,ESE,109,0.0,0.0,26,0.00,,SKC,0.00,VWS V14.01,2013-08-15 14:10:00,
2013-08-15 07:15:00,56.8,18.4,29.56,ESE,122,0.0,0.0,22,0.00,,SKC,0.00,VWS V14.01,2013-08-15 14:15:00,
2013-08-15 07:20:00,58.5,16.4,29.56,SE,132,5.4,5.8,19,0.00,,SKC,0.00,VWS V14.01,2013-08-15 14:20:00,
2013-08-15 07:25:00,59.2,17.0,29.56,ESE,112,3.6,4.0,19,0.00,,SKC,0.00,VWS V14.01,2013-08-15 14:25:00,
2013-08-15 07:30:00,60.1,17.7,29.56,SE,129,0.0,3.6,19,0.00,,SKC,0.00,VWS V14.01,2013-08-15 14:30:00,
2013-08-15 07:35:00,61.3,18.8,29.56,East,101,0.0,0.0,19,0.00,,SKC,0.00,VWS V14.01,2013-08-15 14:35:00,
2013-08-15 07:40:00,62.6,22.1,29.62,East,93,0.0,0.0,21,0.00,,SKC,0.00,VWS V14.01,2013-08-15 14:40:00,
2013-08-15 07:45:00,64.0,23.3,29.62,East,93,0.0,0.0,21,0.00,,SKC,0.00,VWS V14.01,2013-08-15 14:45:00,
2013-08-15 07:50:00,65.3,20.7,29.62,East,93,0.0,0.0,18,0.00,,SKC,0.00,VWS V14.01,2013-08-15 14:50:00,
2013-08-15 07:55:00,65.7,23.5,29.56,East,93,0.0,0.0,20,0.00,,SKC,0.00,VWS V14.01,2013-08-15 14:55:00,
2013-08-15 08:00:00,66.4,24.1,29.56,East,93,0.0,0.0,20,0.00,,SKC,0.00,VWS V14.01,2013-08-15 15:00:00,
2013-08-15 08:05:00,66.4,24.1,29.56,East,93,0.0,0.0,20,0.00,,SKC,0.00,VWS V14.01,2013-08-15 15:05:00,
2013-08-15 08:10:00,66.7,20.6,29.56,East,93,0.0,0.0,17,0.00,,SKC,0.00,VWS V14.01,2013-08-15 15:10:00,
2013-08-15 08:16:00,67.5,21.2,29.56,East,93,0.0,0.0,17,0.00,,SKC,0.00,VWS V14.01,2013-08-15 15:16:00,
2013-08-15 08:21:00,67.8,21.5,29.56,East,93,0.0,0.0,17,0.00,,SKC,0.00,VWS V14.01,2013-08-15 15:21:00,
2013-08-15 08:26:00,68.5,22.0,29.56,East,93,0.0,0.0,17,0.00,,SKC,0.00,VWS V14.01,2013-08-15 15:26:00,
2013-08-15 08:31:00,69.1,22.5,29.56,SE,132,0.0,0.0,17,0.00,,SKC,0.00,VWS V14.01,2013-08-15 15:31:00,
2013-08-15 08:36:00,69.3,22.6,29.56,NNW,346,0.0,0.0,17,0.00,,SKC,0.00,VWS V14.01,2013-08-15 15:36:00,
2013-08-15 08:41:00,69.6,22.9,29.56,NNW,345,0.0,0.0,17,0.00,,SKC,0.00,VWS V14.01,2013-08-15 15:41:00,
2013-08-15 08:46:00,70.2,23.4,29.56,WNW,288,0.0,0.0,17,0.00,,SKC,0.00,VWS V14.01,2013-08-15 15:46:00,
2013-08-15 08:51:00,70.3,23.5,29.56,WNW,289,0.0,0.0,17,0.00,,SKC,0.00,VWS V14.01,2013-08-15 15:51:00,
2013-08-15 08:56:00,70.9,23.9,29.56,WNW,289,0.0,0.0,17,0.00,,SKC,0.00,VWS V14.01,2013-08-15 15:56:00,
2013-08-15 09:01:00,71.6,23.1,29.56,WNW,293,0.0,0.0,16,0.00,,SKC,0.00,VWS V14.01,2013-08-15 16:01:00,
2013-08-15 09:06:00,71.8,23.2,29.56,NW,308,0.0,2.7,16,0.00,,SKC,0.00,VWS V14.01,2013-08-15 16:06:00,
2013-08-15 09:11:00,71.2,24.2,29.56,NW,308,0.0,0.0,17,0.00,,SKC,0.00,VWS V14.01,2013-08-15 16:11:00,
2013-08-15 09:16:00,72.1,23.5,29.56,NW,308,0.0,0.0,16,0.00,,SKC,0.00,VWS V14.01,2013-08-15 16:16:00,
2013-08-15 09:21:00,72.9,24.1,29.56,NW,308,0.0,0.0,16,0.00,,SKC,0.00,VWS V14.01,2013-08-15 16:21:00,
2013-08-15 09:26:00,73.6,24.7,29.56,West,281,0.0,0.0,16,0.00,,SKC,0.00,VWS V14.01,2013-08-15 16:26:00,
2013-08-15 09:31:00,73.9,25.0,29.56,WNW,303,0.0,4.9,16,0.00,,SKC,0.00,VWS V14.01,2013-08-15 16:31:00,
2013-08-15 09:36:00,74.8,25.7,29.56,NW,319,0.0,4.0,16,0.00,,SKC,0.00,VWS V14.01,2013-08-15 16:36:00,
2013-08-15 09:41:00,75.4,24.6,29.59,WNW,301,3.6,3.6,15,0.00,,SKC,0.00,VWS V14.01,2013-08-15 16:41:00,
2013-08-15 09:46:00,75.9,25.0,29.59,NNW,329,0.0,0.0,15,0.00,,SKC,0.00,VWS V14.01,2013-08-15 16:46:00,
2013-08-15 09:51:00,76.5,25.4,29.59,North,357,3.6,4.0,15,0.00,,SKC,0.00,VWS V14.01,2013-08-15 16:51:00,
2013-08-15 09:56:00,77.4,26.1,29.56,NW,317,2.7,3.6,15,0.00,,SKC,0.00,VWS V14.01,2013-08-15 16:56:00,
2013-08-15 10:01:00,78.3,26.9,29.56,North,357,0.0,0.0,15,0.00,,SKC,0.00,VWS V14.01,2013-08-15 17:01:00,
2013-08-15 10:06:00,78.4,27.0,29.56,North,357,0.0,0.0,15,0.00,,SKC,0.00,VWS V14.01,2013-08-15 17:06:00,
2013-08-15 10:11:00,78.6,27.1,29.56,North,350,0.0,2.2,15,0.00,,SKC,0.00,VWS V14.01,2013-08-15 17:11:00,
2013-08-15 10:16:00,78.4,27.0,29.56,NE,47,0.0,0.0,15,0.00,,SKC,0.00,VWS V14.01,2013-08-15 17:16:00,
2013-08-15 10:21:00,79.0,27.4,29.56,North,350,0.0,0.0,15,0.00,,SKC,0.00,VWS V14.01,2013-08-15 17:21:00,
2013-08-15 10:26:00,79.5,27.9,29.56,NW,314,2.2,2.7,15,0.00,,SKC,0.00,VWS V14.01,2013-08-15 17:26:00,
2013-08-15 10:31:00,79.5,27.9,29.56,WNW,296,0.0,2.2,15,0.00,,SKC,0.00,VWS V14.01,2013-08-15 17:31:00,
2013-08-15 10:36:00,79.5,27.9,29.56,WNW,291,0.0,0.0,15,0.00,,SKC,0.00,VWS V14.01,2013-08-15 17:36:00,
2013-08-15 10:42:00,80.4,28.6,29.56,North,357,0.0,2.7,15,0.00,,SKC,0.00,VWS V14.01,2013-08-15 17:42:00,
2013-08-15 10:47:00,81.0,27.3,29.56,NW,308,4.0,4.0,14,0.00,,SKC,0.00,VWS V14.01,2013-08-15 17:47:00,
2013-08-15 10:52:00,81.0,27.3,29.56,WNW,282,2.7,4.0,14,0.00,,SKC,0.00,VWS V14.01,2013-08-15 17:52:00,
2013-08-15 10:57:00,81.3,27.6,29.56,WNW,286,0.0,0.0,14,0.00,,SKC,0.00,VWS V14.01,2013-08-15 17:57:00,
2013-08-15 11:02:00,82.2,28.3,29.56,NW,307,2.7,3.1,14,0.00,,SKC,0.00,VWS V14.01,2013-08-15 18:02:00,
2013-08-15 11:07:00,82.8,28.8,29.56,NW,306,6.3,6.3,14,0.00,,SKC,0.00,VWS V14.01,2013-08-15 18:07:00,
2013-08-15 11:12:00,82.9,28.9,29.59,WNW,285,2.7,3.6,14,0.00,,SKC,0.00,VWS V14.01,2013-08-15 18:12:00,
2013-08-15 11:17:00,83.1,29.0,29.59,ENE,75,0.0,0.0,14,0.00,,SKC,0.00,VWS V14.01,2013-08-15 18:17:00,
2013-08-15 11:22:00,83.8,29.6,29.59,North,357,0.0,0.0,14,0.00,,SKC,0.00,VWS V14.01,2013-08-15 18:22:00,
2013-08-15 11:27:00,84.7,28.5,29.56,NW,310,3.6,6.7,13,0.00,,SKC,0.00,VWS V14.01,2013-08-15 18:27:00,
2013-08-15 11:32:00,85.1,28.8,29.56,NE,56,0.0,0.0,13,0.00,,SKC,0.00,VWS V14.01,2013-08-15 18:32:00,
2013-08-15 11:37:00,85.3,28.9,29.56,NNW,346,0.0,0.0,13,0.00,,SKC,0.00,VWS V14.01,2013-08-15 18:37:00,
2013-08-15 11:43:00,85.8,29.4,29.56,WNW,286,0.0,0.0,13,0.00,,SKC,0.00,VWS V14.01,2013-08-15 18:43:00,
2013-08-15 11:48:00,86.9,30.2,29.56,West,280,3.6,5.8,13,0.00,,SKC,0.00,VWS V14.01,2013-08-15 18:48:00,
2013-08-15 11:53:00,87.1,30.3,29.56,North,8,0.0,2.7,13,0.00,,SKC,0.00,VWS V14.01,2013-08-15 18:53:00,
2013-08-15 11:58:00,87.3,30.5,29.56,WNW,298,5.8,5.8,13,0.00,,SKC,0.00,VWS V14.01,2013-08-15 18:58:00,
2013-08-15 12:03:00,87.6,30.8,29.56,NNW,341,2.7,3.1,13,0.00,,SKC,0.00,VWS V14.01,2013-08-15 19:03:00,
2013-08-15 12:08:00,87.6,30.8,29.56,North,4,0.0,2.7,13,0.00,,SKC,0.00,VWS V14.01,2013-08-15 19:08:00,
2013-08-15 12:13:00,88.0,31.0,29.56,NNW,327,0.0,0.0,13,0.00,,SKC,0.00,VWS V14.01,2013-08-15 19:13:00,
2013-08-15 12:18:00,88.3,31.3,29.56,North,353,2.7,4.0,13,0.00,,SKC,0.00,VWS V14.01,2013-08-15 19:18:00,
2013-08-15 12:23:00,88.3,31.3,29.56,NW,306,5.4,5.4,13,0.00,,SKC,0.00,VWS V14.01,2013-08-15 19:23:00,
2013-08-15 12:28:00,88.9,31.7,29.56,SSW,211,4.0,4.0,13,0.00,,SKC,0.00,VWS V14.01,2013-08-15 19:28:00,
2013-08-15 12:33:00,89.2,32.0,29.56,WSW,251,6.3,6.3,13,0.00,,SKC,0.00,VWS V14.01,2013-08-15 19:33:00,
2013-08-15 12:38:00,89.2,32.0,29.56,SSE,149,8.1,8.1,13,0.00,,SKC,0.00,VWS V14.01,2013-08-15 19:38:00,
2013-08-15 12:43:00,89.6,30.3,29.56,SSW,201,4.0,5.4,12,0.00,,SKC,0.00,VWS V14.01,2013-08-15 19:43:00,
2013-08-15 12:48:00,89.6,30.3,29.56,SW,219,11.0,11.4,12,0.00,,SKC,0.00,VWS V14.01,2013-08-15 19:48:00,
2013-08-15 12:53:00,90.0,30.6,29.56,South,188,3.6,3.6,12,0.00,,SKC,0.00,VWS V14.01,2013-08-15 19:53:00,
2013-08-15 12:59:00,90.1,30.7,29.56,SSE,167,8.7,8.7,12,0.00,,SKC,0.00,VWS V14.01,2013-08-15 19:59:00,
2013-08-15 13:04:00,90.1,30.7,29.56,SW,224,2.7,6.3,12,0.00,,SKC,0.00,VWS V14.01,2013-08-15 20:04:00,
2013-08-15 13:09:00,90.3,30.9,29.56,SSW,196,8.7,8.7,12,0.00,,SKC,0.00,VWS V14.01,2013-08-15 20:09:00,
2013-08-15 13:14:00,90.0,30.6,29.56,SSW,204,3.6,7.6,12,0.00,,SKC,0.00,VWS V14.01,2013-08-15 20:14:00,
2013-08-15 13:19:00,90.5,31.0,29.56,SSW,198,10.5,10.5,12,0.00,,SKC,0.00,VWS V14.01,2013-08-15 20:19:00,
2013-08-15 13:24:00,90.9,31.3,29.56,SW,217,3.6,5.4,12,0.00,,SKC,0.00,VWS V14.01,2013-08-15 20:24:00,
2013-08-15 13:29:00,90.5,31.0,29.56,SW,236,6.7,6.7,12,0.00,,SKC,0.00,VWS V14.01,2013-08-15 20:29:00,
2013-08-15 13:34:00,90.0,30.6,29.56,SSW,197,5.4,5.4,12,0.00,,SKC,0.00,VWS V14.01,2013-08-15 20:34:00,
2013-08-15 13:39:00,90.0,30.6,29.56,WSW,246,5.4,5.4,12,0.00,,SKC,0.00,VWS V14.01,2013-08-15 20:39:00,
2013-08-15 13:44:00,89.8,30.5,29.56,SSW,203,8.3,8.3,12,0.00,,SKC,0.00,VWS V14.01,2013-08-15 20:44:00,
2013-08-15 13:49:00,90.3,30.9,29.56,SSE,168,8.3,8.3,12,0.00,,SKC,0.00,VWS V14.01,2013-08-15 20:49:00,
2013-08-15 13:54:00,90.7,31.2,29.56,South,177,12.8,12.8,12,0.00,,SKC,0.00,VWS V14.01,2013-08-15 20:54:00,
2013-08-15 14:00:00,90.7,31.2,29.56,South,182,7.2,11.0,12,0.00,,SKC,0.00,VWS V14.01,2013-08-15 21:00:00,
2013-08-15 14:05:00,90.1,30.7,29.56,South,180,7.6,11.0,12,0.00,,SKC,0.00,VWS V14.01,2013-08-15 21:05:00,
2013-08-15 14:10:00,90.7,31.2,29.56,SW,221,5.8,8.1,12,0.00,,SKC,0.00,VWS V14.01,2013-08-15 21:10:00,
2013-08-15 14:15:00,91.0,31.4,29.56,SSW,212,4.0,8.7,12,0.00,,SKC,0.00,VWS V14.01,2013-08-15 21:15:00,
2013-08-15 14:20:00,90.7,31.2,29.56,SSW,198,7.2,8.7,12,0.00,,SKC,0.00,VWS V14.01,2013-08-15 21:20:00,
2013-08-15 14:25:00,90.7,31.2,29.56,South,176,7.6,7.6,12,0.00,,SKC,0.00,VWS V14.01,2013-08-15 21:25:00,
2013-08-15 14:30:00,90.1,30.7,29.56,South,186,12.3,13.2,12,0.00,,SKC,0.00,VWS V14.01,2013-08-15 21:30:00,
2013-08-15 14:36:00,90.9,31.3,29.56,SW,233,8.7,11.0,12,0.00,,SKC,0.00,VWS V14.01,2013-08-15 21:36:00,
2013-08-15 14:41:00,91.2,31.6,29.56,SSW,206,2.7,8.7,12,0.00,,SKC,0.00,VWS V14.01,2013-08-15 21:41:00,
2013-08-15 14:46:00,91.2,31.6,29.56,SSW,195,4.9,12.8,12,0.00,,SKC,0.00,VWS V14.01,2013-08-15 21:46:00,
2013-08-15 14:51:00,91.8,32.0,29.56,SW,228,5.4,6.3,12,0.00,,SKC,0.00,VWS V14.01,2013-08-15 21:51:00,
2013-08-15 14:56:00,91.8,32.0,29.56,South,177,10.1,10.1,12,0.00,,SKC,0.00,VWS V14.01,2013-08-15 21:56:00,
2013-08-15 15:01:00,91.9,32.1,29.56,SSW,212,8.7,10.1,12,0.00,,SKC,0.00,VWS V14.01,2013-08-15 22:01:00,
2013-08-15 15:06:00,91.9,32.1,29.56,SW,220,3.6,9.6,12,0.00,,SKC,0.00,VWS V14.01,2013-08-15 22:06:00,
2013-08-15 15:11:00,91.8,32.0,29.56,SW,227,11.0,11.0,12,0.00,,SKC,0.00,VWS V14.01,2013-08-15 22:11:00,
2013-08-15 15:16:00,91.2,31.6,29.56,SE,145,3.1,6.3,12,0.00,,SKC,0.00,VWS V14.01,2013-08-15 22:16:00,
2013-08-15 15:21:00,91.2,31.6,29.56,SW,220,11.4,11.4,12,0.00,,SKC,0.00,VWS V14.01,2013-08-15 22:21:00,
2013-08-15 15:26:00,91.6,31.9,29.56,SSE,149,3.6,8.1,12,0.00,,SKC,0.00,VWS V14.01,2013-08-15 22:26:00,
2013-08-15 15:31:00,91.9,32.1,29.56,SW,236,4.0,10.5,12,0.00,,SKC,0.00,VWS V14.01,2013-08-15 22:31:00,
2013-08-15 15:36:00,91.8,32.0,29.56,WSW,240,8.3,10.5,12,0.00,,SKC,0.00,VWS V14.01,2013-08-15 22:36:00,
2013-08-15 15:41:00,91.6,31.9,29.56,SSW,193,15.0,15.0,12,0.00,,SKC,0.00,VWS V14.01,2013-08-15 22:41:00,
2013-08-15 15:46:00,91.6,31.9,29.56,SW,222,7.6,8.7,12,0.00,,SKC,0.00,VWS V14.01,2013-08-15 22:46:00,
2013-08-15 15:51:00,91.6,31.9,29.56,South,181,3.1,8.7,12,0.00,,SKC,0.00,VWS V14.01,2013-08-15 22:51:00,
2013-08-15 15:56:00,91.6,31.9,29.56,South,182,8.3,10.5,12,0.00,,SKC,0.00,VWS V14.01,2013-08-15 22:56:00,
2013-08-15 16:01:00,91.8,32.0,29.56,South,184,4.0,7.6,12,0.00,,SKC,0.00,VWS V14.01,2013-08-15 23:01:00,
2013-08-15 16:06:00,91.4,31.7,29.56,SSW,205,5.8,8.3,12,0.00,,SKC,0.00,VWS V14.01,2013-08-15 23:06:00,
2013-08-15 16:11:00,91.4,31.7,29.59,SW,226,9.6,10.5,12,0.00,,SKC,0.00,VWS V14.01,2013-08-15 23:11:00,
2013-08-15 16:16:00,91.2,31.6,29.59,WSW,244,3.1,4.0,12,0.00,,SKC,0.00,VWS V14.01,2013-08-15 23:16:00,
2013-08-15 16:21:00,91.0,31.4,29.59,SW,215,3.1,4.0,12,0.00,,SKC,0.00,VWS V14.01,2013-08-15 23:21:00,
2013-08-15 16:26:00,91.0,31.4,29.59,SSW,206,5.8,10.5,12,0.00,,SKC,0.00,VWS V14.01,2013-08-15 23:26:00,
2013-08-15 16:31:00,90.9,31.3,29.59,South,191,11.0,11.0,12,0.00,,SKC,0.00,VWS V14.01,2013-08-15 23:31:00,
2013-08-15 16:36:00,90.1,30.7,29.59,SSW,197,4.0,4.0,12,0.00,,SKC,0.00,VWS V14.01,2013-08-15 23:36:00,
2013-08-15 16:41:00,90.0,30.6,29.59,SSW,193,7.6,7.6,12,0.00,,SKC,0.00,VWS V14.01,2013-08-15 23:41:00,
2013-08-15 16:46:00,90.3,30.9,29.59,SSW,208,2.2,6.3,12,0.00,,SKC,0.00,VWS V14.01,2013-08-15 23:46:00,
2013-08-15 16:51:00,90.5,31.0,29.59,SW,230,9.6,9.6,12,0.00,,SKC,0.00,VWS V14.01,2013-08-15 23:51:00,
2013-08-15 16:56:00,90.3,30.9,29.59,SW,215,3.6,3.6,12,0.00,,SKC,0.00,VWS V14.01,2013-08-15 23:56:00,
2013-08-15 17:02:00,90.5,31.0,29.59,South,179,6.3,7.6,12,0.00,,SKC,0.00,VWS V14.01,2013-08-16 00:02:00,
2013-08-15 17:07:00,90.0,30.6,29.59,SSW,202,7.2,8.7,12,0.00,,SKC,0.00,VWS V14.01,2013-08-16 00:07:00,
2013-08-15 17:12:00,89.8,30.5,29.56,SSE,163,5.8,5.8,12,0.00,,SKC,0.00,VWS V14.01,2013-08-16 00:12:00,
2013-08-15 17:17:00,89.4,32.2,29.56,SSW,211,9.6,10.1,13,0.00,,SKC,0.00,VWS V14.01,2013-08-16 00:17:00,
2013-08-15 17:22:00,89.2,32.0,29.56,WSW,239,3.1,5.4,13,0.00,,SKC,0.00,VWS V14.01,2013-08-16 00:22:00,
2013-08-15 17:27:00,88.9,31.7,29.59,SSW,209,4.0,5.4,13,0.00,,SKC,0.00,VWS V14.01,2013-08-16 00:27:00,
2013-08-15 17:32:00,88.3,31.3,29.59,WSW,256,5.4,5.8,13,0.00,,SKC,0.00,VWS V14.01,2013-08-16 00:32:00,
2013-08-15 17:37:00,87.8,30.9,29.59,SSW,197,5.8,5.8,13,0.00,,SKC,0.00,VWS V14.01,2013-08-16 00:37:00,
2013-08-15 17:42:00,87.1,30.3,29.56,SSW,198,11.0,11.0,13,0.00,,SKC,0.00,VWS V14.01,2013-08-16 00:42:00,
2013-08-15 17:47:00,86.2,29.6,29.56,SSW,203,6.3,8.3,13,0.00,,SKC,0.00,VWS V14.01,2013-08-16 00:47:00,
2013-08-15 17:52:00,85.6,29.2,29.56,South,172,5.4,5.4,13,0.00,,SKC,0.00,VWS V14.01,2013-08-16 00:52:00,
2013-08-15 17:57:00,84.9,28.6,29.56,SW,217,4.0,10.5,13,0.00,,SKC,0.00,VWS V14.01,2013-08-16 00:57:00,
2013-08-15 18:02:00,84.6,28.4,29.56,SSW,208,9.6,9.6,13,0.00,,SKC,0.00,VWS V14.01,2013-08-16 01:02:00,
2013-08-15 18:07:00,84.4,28.2,29.56,SSW,208,3.6,6.3,13,0.00,,SKC,0.00,VWS V14.01,2013-08-16 01:07:00,
2013-08-15 18:12:00,83.7,29.5,29.59,SW,216,5.4,7.6,14,0.00,,SKC,0.00,VWS V14.01,2013-08-16 01:12:00,
2013-08-15 18:17:00,82.9,28.9,29.59,SW,225,10.1,10.1,14,0.00,,SKC,0.00,VWS V14.01,2013-08-16 01:17:00,
2013-08-15 18:22:00,82.2,28.3,29.59,West,262,5.4,8.3,14,0.00,,SKC,0.00,VWS V14.01,2013-08-16 01:22:00,
2013-08-15 18:27:00,82.2,28.3,29.56,SW,217,2.7,6.3,14,0.00,,SKC,0.00,VWS V14.01,2013-08-16 01:27:00,
2013-08-15 18:32:00,81.9,28.0,29.56,South,176,8.1,8.1,14,0.00,,SKC,0.00,VWS V14.01,2013-08-16 01:32:00,
2013-08-15 18:37:00,81.5,27.8,29.56,SW,220,3.6,4.9,14,0.00,,SKC,0.00,VWS V14.01,2013-08-16 01:37:00,
2013-08-15 18:42:00,81.3,27.6,29.56,SSW,213,4.9,5.8,14,0.00,,SKC,0.00,VWS V14.01,2013-08-16 01:42:00,
2013-08-15 18:47:00,81.0,27.3,29.56,West,263,0.0,0.0,14,0.00,,SKC,0.00,VWS V14.01,2013-08-16 01:47:00,
2013-08-15 18:52:00,80.8,27.2,29.56,South,176,4.0,4.0,14,0.00,,SKC,0.00,VWS V14.01,2013-08-16 01:52:00,
2013-08-15 18:57:00,80.2,28.4,29.59,South,188,0.0,0.0,15,0.00,,SKC,0.00,VWS V14.01,2013-08-16 01:57:00,
2013-08-15 19:02:00,79.3,27.7,29.59,SSW,211,0.0,0.0,15,0.00,,SKC,0.00,VWS V14.01,2013-08-16 02:02:00,
2013-08-15 19:07:00,79.0,27.4,29.59,SSW,196,0.0,0.0,15,0.00,,SKC,0.00,VWS V14.01,2013-08-16 02:07:00,
2013-08-15 19:12:00,78.6,27.1,29.59,SW,218,0.0,0.0,15,0.00,,SKC,0.00,VWS V14.01,2013-08-16 02:12:00,
2013-08-15 19:17:00,77.7,26.4,29.59,SSW,203,0.0,0.0,15,0.00,,SKC,0.00,VWS V14.01,2013-08-16 02:17:00,
2013-08-15 19:22:00,76.8,25.7,29.59,SSW,203,0.0,0.0,15,0.00,,SKC,0.00,VWS V14.01,2013-08-16 02:22:00,
2013-08-15 19:27:00,76.1,25.1,29.59,SSW,203,0.0,0.0,15,0.00,,SKC,0.00,VWS V14.01,2013-08-16 02:27:00,
2013-08-15 19:32:00,74.8,25.7,29.59,SSW,203,0.0,0.0,16,0.00,,SKC,0.00,VWS V14.01,2013-08-16 02:32:00,
2013-08-15 19:38:00,73.8,24.8,29.59,SSW,203,0.0,0.0,16,0.00,,SKC,0.00,VWS V14.01,2013-08-16 02:38:00,
2013-08-15 19:43:00,72.5,23.8,29.59,SSW,203,0.0,0.0,16,0.00,,SKC,0.00,VWS V14.01,2013-08-16 02:43:00,
2013-08-15 19:48:00,71.6,23.1,29.59,SSW,203,0.0,0.0,16,0.00,,SKC,0.00,VWS V14.01,2013-08-16 02:48:00,
2013-08-15 19:53:00,71.1,24.1,29.59,SSW,203,0.0,0.0,17,0.00,,SKC,0.00,VWS V14.01,2013-08-16 02:53:00,
2013-08-15 19:58:00,70.5,23.6,29.59,SSW,203,0.0,0.0,17,0.00,,SKC,0.00,VWS V14.01,2013-08-16 02:58:00,
2013-08-15 20:03:00,71.2,24.2,29.59,ESE,110,4.0,4.9,17,0.00,,SKC,0.00,VWS V14.01,2013-08-16 03:03:00,
2013-08-15 20:08:00,72.0,23.4,29.59,SE,126,5.4,5.4,16,0.00,,SKC,0.00,VWS V14.01,2013-08-16 03:08:00,
2013-08-15 20:13:00,72.9,24.1,29.59,SE,132,0.0,0.0,16,0.00,,SKC,0.00,VWS V14.01,2013-08-16 03:13:00,
2013-08-15 20:18:00,73.0,24.2,29.59,ESE,103,2.2,2.2,16,0.00,,SKC,0.00,VWS V14.01,2013-08-16 03:18:00,
2013-08-15 20:23:00,72.9,24.1,29.59,NE,35,3.6,3.6,16,0.00,,SKC,0.00,VWS V14.01,2013-08-16 03:23:00,
2013-08-15 20:28:00,72.1,23.5,29.59,ENE,64,0.0,2.2,16,0.00,,SKC,0.00,VWS V14.01,2013-08-16 03:28:00,
2013-08-15 20:33:00,72.0,23.4,29.59,East,100,0.0,0.0,16,0.00,,SKC,0.00,VWS V14.01,2013-08-16 03:33:00,
2013-08-15 20:38:00,72.3,23.6,29.59,SE,127,8.7,8.7,16,0.00,,SKC,0.00,VWS V14.01,2013-08-16 03:38:00,
2013-08-15 20:43:00,73.2,24.4,29.59,SE,143,5.4,8.1,16,0.00,,SKC,0.00,VWS V14.01,2013-08-16 03:43:00,
2013-08-15 20:48:00,73.9,25.0,29.59,SE,128,6.3,7.6,16,0.00,,SKC,0.00,VWS V14.01,2013-08-16 03:48:00,
2013-08-15 20:53:00,73.4,24.5,29.59,ESE,121,5.8,5.8,16,0.00,,SKC,0.00,VWS V14.01,2013-08-16 03:53:00,
2013-08-15 20:58:00,69.6,22.9,29.59,SSE,147,6.3,6.7,17,0.00,,SKC,0.00,VWS V14.01,2013-08-16 03:58:00,
2013-08-15 21:01:00,68.5,22.0,29.59,ESE,122,6.3,8.3,17,0.00,,SKC,0.00,VWS V14.01,2013-08-16 04:01:00,
2013-08-15 21:06:00,68.4,21.9,29.59,SSE,154,5.8,9.6,17,0.00,,SKC,0.00,VWS V14.01,2013-08-16 04:06:00,
2013-08-15 21:11:00,70.0,23.2,29.59,SE,142,8.3,12.8,17,0.00,,SKC,0.00,VWS V14.01,2013-08-16 04:11:00,
2013-08-15 21:16:00,71.1,24.1,29.59,SE,136,8.7,10.5,17,0.00,,SKC,0.00,VWS V14.01,2013-08-16 04:16:00,
2013-08-15 21:21:00,72.1,23.5,29.59,SSE,167,8.7,10.5,16,0.00,,SKC,0.00,VWS V14.01,2013-08-16 04:21:00,
2013-08-15 21:26:00,72.1,23.5,29.59,SSE,156,8.1,8.3,16,0.00,,SKC,0.00,VWS V14.01,2013-08-16 04:26:00,
2013-08-15 21:31:00,72.3,23.6,29.59,SE,139,5.4,12.8,16,0.00,,SKC,0.00,VWS V14.01,2013-08-16 04:31:00,
2013-08-15 21:36:00,72.9,24.1,29.59,SSE,150,8.7,12.8,16,0.00,,SKC,0.00,VWS V14.01,2013-08-16 04:36:00,
2013-08-15 21:41:00,72.9,24.1,29.59,SE,144,10.1,18.3,16,0.00,,SKC,0.00,VWS V14.01,2013-08-16 04:41:00,
2013-08-15 21:46:00,72.9,24.1,29.59,SE,124,14.1,14.1,16,0.00,,SKC,0.00,VWS V14.01,2013-08-16 04:46:00,
2013-08-15 21:51:00,72.7,23.9,29.59,ESE,120,8.1,10.5,16,0.00,,SKC,0.00,VWS V14.01,2013-08-16 04:51:00,
2013-08-15 21:56:00,72.5,23.8,29.59,SE,133,11.0,11.4,16,0.00,,SKC,0.00,VWS V14.01,2013-08-16 04:56:00,
2013-08-15 22:01:00,72.3,23.6,29.59,SE,146,8.1,11.0,16,0.00,,SKC,0.00,VWS V14.01,2013-08-16 05:01:00,
2013-08-15 22:06:00,71.8,23.2,29.59,SE,124,10.5,12.3,16,0.00,,SKC,0.00,VWS V14.01,2013-08-16 05:06:00,
2013-08-15 22:11:00,71.4,24.4,29.59,ESE,118,8.1,11.0,17,0.00,,SKC,0.00,VWS V14.01,2013-08-16 05:11:00,
2013-08-15 22:16:00,70.9,23.9,29.59,SE,128,10.1,10.5,17,0.00,,SKC,0.00,VWS V14.01,2013-08-16 05:16:00,
2013-08-15 22:21:00,70.3,23.5,29.59,SSE,157,7.6,8.7,17,0.00,,SKC,0.00,VWS V14.01,2013-08-16 05:21:00,
2013-08-15 22:26:00,70.0,23.2,29.59,SE,136,7.6,10.1,17,0.00,,SKC,0.00,VWS V14.01,2013-08-16 05:26:00,
2013-08-15 22:31:00,70.3,23.5,29.59,SE,128,7.2,12.3,17,0.00,,SKC,0.00,VWS V14.01,2013-08-16 05:31:00,
2013-08-15 22:36:00,70.9,23.9,29.59,SSE,162,8.3,10.1,17,0.00,,SKC,0.00,VWS V14.01,2013-08-16 05:36:00,
2013-08-15 22:41:00,71.1,24.1,29.59,SE,145,8.7,8.7,17,0.00,,SKC,0.00,VWS V14.01,2013-08-16 05:41:00,
2013-08-15 22:46:00,71.2,24.2,29.59,SSE,149,6.3,12.3,17,0.00,,SKC,0.00,VWS V14.01,2013-08-16 05:46:00,
2013-08-15 22:51:00,71.2,24.2,29.59,SSE,154,8.1,9.2,17,0.00,,SKC,0.00,VWS V14.01,2013-08-16 05:51:00,
2013-08-15 22:56:00,70.9,23.9,29.59,South,169,8.1,8.1,17,0.00,,SKC,0.00,VWS V14.01,2013-08-16 05:56:00,
2013-08-15 23:01:00,70.7,23.8,29.59,SE,134,10.1,12.8,17,0.00,,SKC,0.00,VWS V14.01,2013-08-16 06:01:00,
2013-08-15 23:06:00,70.7,23.8,29.59,SE,133,8.3,10.1,17,0.00,,SKC,0.00,VWS V14.01,2013-08-16 06:06:00,
2013-08-15 23:11:00,70.5,23.6,29.59,SE,129,4.0,5.8,17,0.00,,SKC,0.00,VWS V14.01,2013-08-16 06:11:00,
2013-08-15 23:16:00,70.3,23.5,29.59,SE,130,5.4,8.1,17,0.00,,SKC,0.00,VWS V14.01,2013-08-16 06:16:00,
2013-08-15 23:21:00,70.0,23.2,29.59,SE,136,7.6,7.6,17,0.00,,SKC,0.00,VWS V14.01,2013-08-16 06:21:00,
2013-08-15 23:26:00,69.4,22.8,29.59,SE,132,5.4,6.7,17,0.00,,SKC,0.00,VWS V14.01,2013-08-16 06:26:00,
2013-08-15 23:31:00,68.7,22.2,29.59,SE,132,5.4,5.8,17,0.00,,SKC,0.00,VWS V14.01,2013-08-16 06:31:00,
2013-08-15 23:36:00,68.0,21.6,29.59,ESE,118,4.0,6.3,17,0.00,,SKC,0.00,VWS V14.01,2013-08-16 06:36:00,
2013-08-15 23:41:00,67.6,21.3,29.59,ESE,116,4.9,5.8,17,0.00,,SKC,0.00,VWS V14.01,2013-08-16 06:41:00,
2013-08-15 23:46:00,67.1,20.9,29.59,ESE,119,6.3,6.3,17,0.00,,SKC,0.00,VWS V14.01,2013-08-16 06:46:00,
2013-08-15 23:51:00,67.1,20.9,29.59,ESE,120,4.0,4.0,17,0.00,,SKC,0.00,VWS V14.01,2013-08-16 06:51:00,
2013-08-15 23:56:00,66.9,20.7,29.59,ESE,111,2.7,3.6,17,0.00,,SKC,0.00,VWS V14.01,2013-08-16 06:56:00,